Showing default

ASTROSAT, 40930

Orbit data source: Space-Track

ASTROSAT, 40930 is a payload satellite owned by ISRO (IN) in LEO that was launched on Mon, 28 Sep 2015 UTC via a PSLV-XL launch vehicle from the Sirharikota (SRI). Payload-class satellites include a variety of spacecraft equipped with specific instruments for various scientific and technological missions. These include communications satellites like Starlink; space stations such as the ISS; scientific satellites like the Hubble; Earth observation satellites from companies like Planet Labs, Umbra, and HawkEye 360; GPS; miniature CubeSats for education and research; and military/defense satellites.

Not visible in the next 10 days
Identifier
40930, 2015-052A
Orbit
LEO
Last TLE update
2 days ago
Origin
Manufacturer
ISRO SAC/Banga
Mission
Operational Civil Astronomy
Bus & Motor
ASTROSAT, AOCS
Mass
1,513 kg wet, 1,470 kg dry
Launch date (UTC)
2015-09-28 (10 years ago)
Launch vehicle
PSLV-XL
Launch site
Sirharikota (SRI)
Object type
Payload
Rocket body
Debris
Shape & HBR
Box + 2 Pan, 7 m
Radar Cross Section
5.447 m², Large (>1 m²)

Expand to show TLE details & history

TLE from 2 days ago
0 ASTROSAT
1 40930U 15052A   25184.23042190  .00001428  00000-0  95229-4 0  9996
2 40930   5.9957 145.2289 0007632  94.8473 265.2527 14.81467198527975
Epoch: 2025-07-03T05:31Z
TLE epoch observation values (Epoch: 2025-07-03T05:31:48.452Z)
Latitude
0.00001°
Longitude
140.77693°
Altitude
622.081 km
Speed
7.551 km/s
True Right ascension
09h 40m 54s
True Declination
0° 00' 00"
Sunlit
Object was in daylight at epoch
Visualization orbit readout
Latitude
-5.80287°
Longitude
19.70535°
Altitude
625.926 km
Speed
7.547 km/s
Apparent Right ascension
04h 16m 10s
Apparent Declination
-32° 59' 32"
Sunlit
Object is in daylight
Visualization observer readout
Local Sidereal Time
20:39:23
Azimuth
104.445° ESE
Elevation
-37.809°
Doppler factor
1
Orbital elements
Apogee altitude
636.241 km
Perigee altitude
625.542 km
Semi-major axis
7,009.028 km
Eccentricity
0.00076
Inclination
5.9957°
RAAN
145.2289°
Arg. of periapsis
94.8473°
True anomaly
Unknown
Mean anomaly
265.2527°
Eccentric anomaly
Unknown
Mean motion
3.69876 °/min
Orbital period
97.33 mins
BSTAR
0.000095229
Loading maneuver chart data...
Loading SW <> Apogee altitude chart data...
Loading historical data...
Loading historical data...
Loading historical data...
Loading historical data...
Loading historical data...
Loading historical data...
Loading historical data...

ASTROSAT Visibility

Observer location: undefined°, undefined°

ASTROSAT is likely not visible in the next few days
Span
Click to sort rows by Start time (UTC) header in descending order
Start Az.
Max El. time (UTC)
Max El. Az.
Max El.
End time (UTC)
End Az.
|